Location: St. Louis
(38.6270°N, 90.1994°W)
Time: 10:38:13
(UTC-06:00)

A-11 Canister half - Pass Details

Date: 10 December 2021
Orbit: 1524 x 1684 km, 47.3° (Epoch: 25 January)

Event Time Altitude Azimuth Distance (km) Brightness Sun altitude
Rises 07:08:48 0° 299° (WNW) 4,911 - -0.7°
Exits shadow 07:09:05 - 298° (WNW) 4,828 10.9 -0.6°
Reaches altitude 10° 07:12:15 10° 292° (WNW) 3,904 10.5 -0.1°
Maximum altitude 07:21:10 39° 228° (SW) 2,260 9.8 1.4°
Drops below altitude 10° 07:29:50 10° 164° (SSE) 3,778 11.9 2.8°
Sets 07:33:07 0° 156° (SSE) 4,737 12.7 3.4°
